| time (UTC) | temp F | wind direction | speed MPH | gust MPH | rain 1hr in | rain 24hr in | rain mn in | humidity % | barometer mb |
| 20260506071526 | 61 | 178 | 0.0 | 0.0 | 0.00 | 0.02 | 0.00 | 3 | 1017.8 |
| 20260506061532 | 61 | 127 | 0.0 | 0.0 | 0.00 | 0.16 | 0.02 | 3 | 1017.4 |
| 20260506044522 | 61 | 136 | 0.0 | 1.0 | 0.00 | 0.20 | 0.02 | 3 | 1016.7 |
| 20260506043015 | 61 | 135 | 0.0 | 3.0 | 0.00 | 0.20 | 0.02 | 3 | 1016.5 |
| 20260506041510 | 62 | 203 | 0.0 | 2.0 | 0.00 | 0.20 | 0.02 | 3 | 1016.3 |
| 20260506040007 | 61 | 211 | 0.0 | 5.0 | 0.00 | 0.20 | 0.02 | 3 | 1016.2 |
| 20260506034505 | 61 | 121 | 0.0 | 1.0 | 0.00 | 0.23 | 0.02 | 3 | 1016.1 |
| 20260506033058 | 61 | 217 | 0.0 | 3.0 | 0.00 | 0.23 | 0.02 | 9 | 1015.9 |
| 20260506031606 | 61 | 179 | 0.0 | 0.0 | 0.00 | 0.23 | 0.02 | 17 | 1015.4 |
| 20260506030048 | 60 | 194 | 0.0 | 2.0 | 0.00 | 0.23 | 0.02 | 26 | 1015.2 |
| 20260506024552 | 60 | 212 | 0.0 | 6.0 | 0.00 | 0.30 | 0.02 | 34 | 1015.2 |
| 20260506023022 | 60 | 153 | 0.0 | 1.0 | 0.00 | 0.30 | 0.02 | 42 | 1015.1 |
| 20260506021600 | 61 | 215 | 0.0 | 3.0 | 0.00 | 0.30 | 0.02 | 51 | 1015.0 |
| 20260506021501 | 61 | 195 | 0.0 | 3.0 | 0.00 | 0.30 | 0.02 | 52 | 1015.0 |
| 20260506020059 | 61 | 165 | 0.0 | 1.0 | 0.00 | 0.30 | 0.02 | 58 | 1014.8 |
| 20260506014536 | 62 | 208 | 0.0 | 2.0 | 0.00 | 0.36 | 0.02 | 61 | 1014.7 |
| 20260506013040 | 63 | 233 | 0.0 | 2.0 | 0.00 | 0.36 | 0.02 | 60 | 1014.7 |
| 20260506011510 | 63 | 224 | 0.0 | 2.0 | 0.00 | 0.36 | 0.02 | 58 | 1014.4 |
| 20260506010009 | 63 | 205 | 0.0 | 4.0 | 0.00 | 0.36 | 0.02 | 59 | 1014.5 |
| 20260506004542 | 63 | 215 | 0.0 | 5.0 | 0.00 | 0.44 | 0.02 | 60 | 1014.5 |
| 20260506003039 | 63 | 224 | 0.0 | 4.0 | 0.00 | 0.44 | 0.02 | 60 | 1014.4 |
| 20260506001517 | 63 | 180 | 0.0 | 4.0 | 0.00 | 0.44 | 0.02 | 60 | 1014.3 |
| 20260506000011 | 63 | 233 | 0.0 | 5.0 | 0.00 | 0.44 | 0.02 | 59 | 1014.2 |
| 20260505234549 | 64 | 214 | 0.0 | 7.0 | 0.00 | 0.48 | 0.02 | 60 | 1014.3 |
| 20260505233044 | 64 | 158 | 0.0 | 6.0 | 0.00 | 0.48 | 0.02 | 60 | 1014.2 |
| 20260505231522 | 65 | 162 | 0.0 | 1.0 | 0.00 | 0.48 | 0.02 | 61 | 1014.3 |
| 20260505230034 | 65 | 233 | 0.0 | 10.0 | 0.00 | 0.48 | 0.02 | 61 | 1014.2 |
| 20260505224556 | 65 | 134 | 0.0 | 4.0 | 0.00 | 0.50 | 0.02 | 61 | 1014.2 |
| 20260505223106 | 66 | 181 | 0.0 | 0.0 | 0.00 | 0.50 | 0.02 | 61 | 1014.2 |
| 20260505221534 | 67 | 211 | 0.0 | 0.0 | 0.00 | 0.50 | 0.02 | 61 | 1014.4 |
| 20260505220025 | 66 | 224 | 0.0 | 0.0 | 0.00 | 0.50 | 0.02 | 60 | 1014.4 |
| 20260505214511 | 66 | 218 | 0.0 | 0.0 | 0.00 | 0.50 | 0.02 | 61 | 1014.5 |
| 20260505213004 | 66 | 147 | 0.0 | 1.0 | 0.00 | 0.50 | 0.02 | 60 | 1014.6 |
| 20260505211559 | 66 | 177 | 0.0 | 1.0 | 0.00 | 0.50 | 0.02 | 60 | 1014.7 |
| 20260505210058 | 66 | 232 | 0.0 | 0.0 | 0.00 | 0.50 | 0.02 | 59 | 1014.8 |
| 20260505204553 | 65 | 229 | 0.0 | 0.0 | 0.00 | 0.50 | 0.02 | 60 | 1014.8 |
| 20260505203053 | 65 | 174 | 0.0 | 0.0 | 0.00 | 0.50 | 0.02 | 61 | 1014.8 |
| 20260505201543 | 65 | 173 | 0.0 | 3.0 | 0.00 | 0.50 | 0.02 | 61 | 1014.9 |
| 20260505200042 | 67 | 177 | 0.0 | 0.0 | 0.00 | 0.50 | 0.02 | 60 | 1014.9 |
| 20260505194543 | 67 | 291 | 0.0 | 0.0 | 0.00 | 0.50 | 0.02 | 60 | 1014.9 |
| 20260505193022 | 65 | 204 | 0.0 | 0.0 | 0.00 | 0.50 | 0.02 | 60 | 1014.9 |
| 20260505191519 | 66 | 180 | 0.0 | 0.0 | 0.00 | 0.50 | 0.02 | 60 | 1015.0 |
| 20260505190013 | 65 | 224 | 0.0 | 0.0 | 0.00 | 0.50 | 0.02 | 60 | 1014.9 |
| 20260505184511 | 65 | 134 | 0.0 | 0.0 | 0.00 | 0.50 | 0.02 | 60 | 1014.9 |
| 20260505183004 | 65 | 332 | 0.0 | 0.0 | 0.00 | 0.50 | 0.02 | 59 | 1014.9 |
| 20260505181601 | 65 | 203 | 0.0 | 0.0 | 0.00 | 0.50 | 0.02 | 58 | 1014.9 |
| 20260505180056 | 65 | 195 | 0.0 | 0.0 | 0.00 | 0.50 | 0.02 | 58 | 1014.8 |
| 20260505174552 | 65 | 297 | 0.0 | 0.0 | 0.00 | 0.50 | 0.02 | 55 | 1014.8 |
| 20260505173041 | 65 | 319 | 0.0 | 0.0 | 0.00 | 0.50 | 0.02 | 32 | 1014.7 |
| 20260505171526 | 64 | 208 | 0.0 | 0.0 | 0.00 | 0.50 | 0.02 | 17 | 1014.7 |
| 20260505170013 | 65 | 186 | 0.0 | 0.0 | 0.00 | 0.50 | 0.02 | 3 | 1014.7 |
| 20260505164515 | 64 | 186 | 0.0 | 0.0 | 0.00 | 0.50 | 0.02 | 3 | 1014.7 |
| 20260505163010 | 63 | 186 | 0.0 | 0.0 | 0.00 | 0.50 | 0.02 | 3 | 1014.7 |
| 20260505161558 | 61 | 186 | 0.0 | 0.0 | 0.00 | 0.50 | 0.02 | 3 | 1014.6 |
| 20260505153101 | 57 | 186 | 0.0 | 0.0 | 0.00 | 0.50 | 0.02 | 3 | 1014.4 |
| 20260505151548 | 56 | 186 | 0.0 | 0.0 | 0.00 | 0.50 | 0.02 | 3 | 1014.2 |
| 20260505124536 | 0 | 0.0 | 0.0 | 0.00 | 0.50 | 0.02 | 1013.3 | ||
| 20260505123011 | 0 | 0.0 | 0.0 | 0.00 | 0.50 | 0.02 | 1013.3 | ||
| 20260505121506 | 0 | 0.0 | 0.0 | 0.00 | 0.50 | 0.02 | 1013.2 | ||
| 20260505120046 | 0 | 0.0 | 0.0 | 0.00 | 0.50 | 0.02 | 1013.3 | ||
| 20260505114545 | 0 | 0.0 | 0.0 | 0.00 | 0.50 | 0.02 | 1013.4 | ||
| 20260505113018 | 0 | 0.0 | 0.0 | 0.00 | 0.50 | 0.02 | 1013.3 | ||
| 20260505111515 | 0 | 0.0 | 0.0 | 0.00 | 0.50 | 0.02 | 1013.5 | ||
| 20260505110106 | 0 | 0.0 | 0.0 | 0.00 | 0.50 | 0.02 | 1013.5 | ||
| 20260505101546 | 0 | 0.0 | 0.0 | 0.00 | 0.50 | 0.02 | 1013.6 | ||
| 20260505100049 | 0 | 0.0 | 0.0 | 0.00 | 0.50 | 0.02 | 1013.6 | ||
| 20260505094537 | 54 | 204 | 0.0 | 0.0 | 0.01 | 0.50 | 0.02 | 3 | 1013.4 |
| 20260505093033 | 54 | 203 | 0.0 | 0.0 | 0.01 | 0.50 | 0.02 | 3 | 1013.4 |
| 20260505091534 | 54 | 210 | 0.0 | 0.0 | 0.01 | 0.50 | 0.02 | 3 | 1013.2 |
| 20260505090006 | 54 | 223 | 0.0 | 0.0 | 0.01 | 0.50 | 0.02 | 3 | 1014.0 |
| 20260505084502 | 54 | 217 | 0.0 | 0.0 | 0.00 | 0.49 | 0.01 | 3 | 1014.1 |
| 20260505083044 | 54 | 181 | 0.0 | 0.0 | 0.00 | 0.49 | 0.01 | 3 | 1014.0 |
| 20260505081551 | 54 | 200 | 0.0 | 0.0 | 0.00 | 0.49 | 0.01 | 3 | 1014.0 |
| 20260505080014 | 54 | 200 | 0.0 | 0.0 | 0.00 | 0.49 | 0.01 | 3 | 1014.1 |
| 20260505074510 | 54 | 200 | 0.0 | 0.0 | 0.03 | 0.49 | 0.01 | 3 | 1014.4 |
| 20260505073052 | 54 | 205 | 0.0 | 0.0 | 0.04 | 0.49 | 0.01 | 3 | 1014.2 |
| 20260505071545 | 54 | 199 | 0.0 | 0.0 | 0.10 | 0.49 | 0.01 | 3 | 1014.4 |